Weather in Vawkavysk

Belarus     53°09′46″N   24°27′50″E
temp.,
°C
wind,
m/s
gust,
m/s
humid.,
%
clouds,
%
prec.,
mm/h
press.,
hPa
HPBL,
m
17 april, sat
sat1700:00+6ene379520 0.0 1015129
03:00+5ene38955 0.0 1016143
06:00+6ne3693100 0.0 1017148
09:00+7ne3589100 0.0 1018202
12:00+12e35686 0.0 1018912
15:00+13ene456028 0.6 10181358
18:00+13e466095 0.5 10181286
21:00+10ese3773100 0.5 1019158
18 april, sun
sun1800:00+9ssw2375100 0.0 101946
03:00+8nnw2283100 0.0 102039
06:00+8nne489192 0.0 1019308
09:00+10ne588437 0.0 1019509
12:00+14ene686497 0.0 10181347
15:00+12ene4773100 0.1 1019645
18:00+11ene4777100 0.3 1019428
21:00+10e4784100 0.4 1021293
19 april, mon
mon1900:00+8ne498611 0.0 1021465
03:00+6ne478691 0.0 1021279
06:00+6ne3791100 0.0 1021259
09:00+7ne458364 0.0 1021361
12:00+9e5574100 0.1 1020959
15:00+9ene666872 0.3 10201093
18:00+9ene4670100 0.0 10191078
21:00+8ne3774100 0.0 1019251
20 april, tue
tue2000:00+7ne4781100 0.0 1018265
03:00+4ne379468 0.1 1017146
06:00+4ne389856 0.0 1016215
09:00+5ne3690100 0.0 1015369
12:00+8ne4676100 0.3 1014946
15:00+10nne4560100 0.6 10121504
18:00+8n4676100 0.5 1011716
21:00+7n3787100 0.9 1010356
21 april, wed
wed2100:00+6wnw228928 0.6 100956
03:00+3wnw379530 0.6 1008140
06:00+2wnw49965 0.0 1007187
09:00+6wnw69818 0.0 1007572
12:00+9w686689 0.4 10071374
15:00+11wnw695899 1.0 10071508
18:00+11wnw7963100 0.6 10081287
21:00+7w378061 0.8 1009128